Showing default

OPS 9317 (IDSCS 7), 2221

Orbit data source: Space-Track

OPS 9317 (IDSCS 7), 2221 is a payload satellite owned by USAF SSD (US) in GEO that was launched on Thu, 16 Jun 1966 UTC via a TITAN IIIC launch vehicle from the Air Force Eastern Test Range (AFETR). Payloads include a variety of satellites, spacecraft, and rockets equipped with specific instruments for various scientific and technological missions. These include communications satellites like Starlink; space stations such as the ISS; scientific satellites like the Hubble; Earth observation satellites from companies like Planet Labs, Umbra, and HawkEye 360; GPS; miniature CubeSats for education and research; and military/defense satellites.

Not visible in the next 10 days
OPS 9317 (IDSCS 7) details
Identifier
2221, 1966-053H
Orbit
GEO
Last TLE update2 days ago
Origin
Flag of USUSAF SSD (US)
ManufacturerPhilco-Ford WDL
MissionNon-operational Defense Communications
Bus & MotorIDCSP, Unknown motor
Mass45 kg wet, 45 kg dry
Launch date (UTC)
1966-06-16 (59 years ago)
Launch vehicle
TITAN IIIC
Launch site
Air Force Eastern Test Range (AFETR)
Object type
Payload
Rocket body
Debris
Shape & HBRIco Poly, 0.9 m
Radar Cross Section0.926 m², Medium (>0.1 m² and < 1m²)

Expand to show TLE details & history

TLE from 2 days ago
0 OPS 9317 (IDSCS 7)
1 02221U 66053H   24354.12069853 -.00000113  00000-0  00000-0 0  9995
2 02221   7.3681  51.8904 0080816 160.6546 199.5664  1.06870204 45201
Epoch: 2024-12-19T02:53Z
Definitive object data (Epoch: 2024-12-19T02:53:48.353Z)
Latitude
Longitude-79.84255°
Altitude34,339.911 km
Speed3.117 km/s
True Right ascension03h 27m 15s
True Declination0° 00' 00"
Sunlit
Object was in daylight at TLE epoch
Visualization TLE readout
Latitude-3.38425°
Longitude127.26329°
Altitude33,806.426 km
Speed3.158 km/s
Apparent Right ascension17h 43m 44s
Apparent Declination-9° 11' 01"
Sunlit
Object is in daylight
Visualization observer readout
Local Sidereal Time11:42:41
Azimuth96.905° ESE
Elevation-6.076°
Doppler factor1
Orbital elements
Apogee altitude34,360.341 km
Perigee altitude33,707.155 km
Semi-major axis40,411.885 km
Eccentricity0.0080816
Inclination7.3681°
RAAN51.8904°
Arg. of periapsis160.6546°
True anomaly199.25918°
Mean anomaly199.5664°
Eccentric anomaly199.4125°
Mean motion0.26716 °/min
BSTARUnknown
Orbital period1347.48 mins
Loading historical data...
2221 neighbors
Authenticating...
Loading maneuver chart data...
Loading historical data...
Loading historical data...
Loading historical data...
Loading historical data...
Loading historical data...
Loading historical data...
Loading historical data...

OPS 9317 (IDSCS 7) Visibility forecast

Observer location: undefined°, undefined

OPS 9317 (IDSCS 7) is not visible in the next 10 days
Span
Click to sort rows by Start time (UTC) header in descending order
Start Az.
Max El. time (UTC)
Max El. Az.
Max El.
End time (UTC)
End Az.
|